{"data":{"norad_id":62863,"intl_designator":"2025-022K","name":"STARLINK-32808","alt_names":[],"object_type":"PAYLOAD","status":"ACTIVE","operator":null,"country":"US","launch_date":"2025-02-01","launch_site_code":"AFWTR","launch_vehicle":null,"mission":null,"orbit_class":"UNKNOWN","rcs_meters":null,"size_class":null,"mass_kg":null,"dimensions":null,"purposes":["comms"],"wikipedia_slug":null,"has_3d_model":false,"image_url":null,"decayed_at":null,"tle_current":{"epoch":"2026-05-25T03:31:10.215264Z","epoch_age_seconds":58268,"freshness":"FRESH","line1":"1 62863U 25022K   26145.14664601  .00031724  00000+0  10780-2 0  9996","line2":"2 62863  53.1591 134.6452 0001160  90.4722 269.6412 15.30217948 73604","mean_motion":15.30217948,"eccentricity":0.000116,"inclination_deg":53.1591,"raan_deg":134.6452,"arg_perigee_deg":90.4722,"mean_anomaly_deg":269.6412,"bstar":0.001078,"rev_number":7360,"period_min":94.104241940312,"perigee_km":474.36649782654,"apogee_km":475.956463074,"semimajor_km":6853.2984804503,"source":"CELESTRAK","updated_at":"2026-05-25T13:38:19.784822Z"}}}